GW3601 Weather Reports


time (UTC)temp
C
wind
direction
speed
KPH
gust
KPH
rain 1hr
cm
rain 24hr
cm
rain mn
cm
humidity
%
barometer
mb
20260509202931 21 67 3.2 6.4 0.00 0.00 0.00 16 1024.8
20260509202029 21 67 3.2 6.4 0.00 0.00 0.00 17 1024.7
20260509200131 21 67 3.2 6.4 0.00 0.00 0.00 17 1024.8
20260509195133 21 67 3.2 6.4 0.00 0.00 0.00 18 1024.9
20260509194230 21 67 1.6 3.2 0.00 0.00 0.00 18 1025.0
20260509193231 21 67 1.6 6.4 0.00 0.00 0.00 18 1025.0
20260509192230 21 91 1.6 8.0 0.00 0.00 0.00 18 1025.1
20260509191233 21 67 3.2 4.8 0.00 0.00 0.00 17 1025.4
20260509190232 21 67 1.6 4.8 0.00 0.00 0.00 18 1025.4
20260509185232 22 45 4.8 6.4 0.00 0.00 0.00 17 1025.4
20260509183331 22 90 1.6 6.4 0.00 0.00 0.00 18 1025.7
20260509182330 21 90 4.8 8.0 0.00 0.00 0.00 18 1025.8
20260509181331 21 90 1.6 4.8 0.00 0.00 0.00 19 1025.4
20260509180330 21 90 1.6 4.8 0.00 0.00 0.00 19 1025.7
20260509175333 21 112 1.6 4.8 0.00 0.00 0.00 19 1026.0
20260509174330 21 90 6.4 9.7 0.00 0.00 0.00 19 1025.8
20260509173332 21 90 1.6 4.8 0.00 0.00 0.00 20 1025.7
20260509172330 20 90 0.0 3.2 0.00 0.00 0.00 21 1025.9
20260509171331 20 90 0.0 1.6 0.00 0.00 0.00 21 1025.7
20260509170429 20 90 1.6 6.4 0.00 0.00 0.00 19 1025.9
20260509170329 20 90 1.6 8.0 0.00 0.00 0.00 19 1025.9
20260509165333 20 112 4.8 8.0 0.00 0.00 0.00 20 1026.0
20260509164429 20 112 1.6 6.4 0.00 0.00 0.00 20 1025.8
20260509163432 20 10 3.2 6.4 0.00 0.00 0.00 20 1025.6
20260509162530 20 90 3.2 4.8 0.00 0.00 0.00 21 1025.7
20260509161629 19 90 3.2 6.4 0.00 0.00 0.00 21 1025.7
20260509160632 18 90 3.2 8.0 0.00 0.00 0.00 20 1025.7
20260509155630 19 90 4.8 9.7 0.00 0.00 0.00 20 1025.8
20260509154729 19 90 1.6 6.4 0.00 0.00 0.00 21 1025.7
20260509153732 19 90 1.6 3.2 0.00 0.00 0.00 21 1025.6
20260509152729 19 90 1.6 3.2 0.00 0.00 0.00 21 1025.7
20260509151734 18 90 1.6 3.2 0.00 0.00 0.00 20 1025.6
20260509150730 18 90 0.0 3.2 0.00 0.00 0.00 22 1025.7
20260509144829 17 90 0.0 4.8 0.00 0.00 0.00 22 1025.5
20260509143832 16 90 0.0 1.6 0.00 0.00 0.00 24 1025.7
20260509142832 15 90 0.0 0.0 0.00 0.00 0.00 25 1025.9
20260509141931 15 90 0.0 0.0 0.00 0.00 0.00 26 1025.8
20260509140930 13 90 0.0 0.0 0.00 0.00 0.00 29 1025.7
20260509135931 12 90 0.0 0.0 0.00 0.00 0.00 30 1025.6
20260509134931 12 90 0.0 1.6 0.00 0.00 0.00 28 1025.6
20260509134031 11 90 1.6 3.2 0.00 0.00 0.00 29 1025.4
20260509133033 11 90 1.6 3.2 0.00 0.00 0.00 30 1025.4
20260509132033 11 90 1.6 4.8 0.00 0.00 0.00 30 1025.1
20260509131131 11 90 0.0 0.0 0.00 0.00 0.00 29 1025.1
20260509130133 11 90 0.0 1.6 0.00 0.00 0.00 28 1024.8
20260509124329 11 90 0.0 1.6 0.00 0.00 0.00 27 1024.5
20260509123330 11 90 0.0 3.2 0.00 0.00 0.00 28 1024.4
20260509122330 10 90 0.0 1.6 0.00 0.00 0.00 29 1024.2
20260509121329 10 90 1.6 3.2 0.00 0.00 0.00 29 1023.8
20260509120332 10 90 0.0 1.6 0.00 0.00 0.00 28 1023.6
20260509115331 9 90 0.0 0.0 0.00 0.00 0.00 30 1023.5
20260509114348 10 90 0.0 0.0 0.00 0.00 0.00 30 1023.1
20260509113431 9 90 0.0 0.0 0.00 0.00 0.00 32 1023.3
20260509111432 8 90 1.6 3.2 0.00 0.00 0.00 34 1023.4
20260509110430 8 90 1.6 4.8 0.00 0.00 0.00 37 1023.3
20260509105429 8 90 0.0 0.0 0.00 0.00 0.00 38 1023.4
20260509104430 8 90 0.0 3.2 0.00 0.00 0.00 38 1023.4
20260509103430 8 90 0.0 0.0 0.00 0.00 0.00 38 1023.6
20260509101432 8 90 1.6 4.8 0.00 0.00 0.00 38 1023.6
20260509100530 8 90 3.2 4.8 0.00 0.00 0.00 37 1023.8
20260509095531 8 90 1.6 3.2 0.00 0.00 0.00 39 1023.8
20260509094530 8 90 0.0 3.2 0.00 0.00 0.00 38 1023.8
20260509093531 8 90 3.2 4.8 0.00 0.00 0.00 38 1023.7
20260509092531 8 90 3.2 3.2 0.00 0.00 0.00 38 1023.8
20260509091629 8 90 3.2 8.0 0.00 0.00 0.00 39 1023.7
20260509090630 7 90 1.6 4.8 0.00 0.00 0.00 39 1023.6
20260509085632 7 90 0.0 3.2 0.00 0.00 0.00 38 1023.7
20260509084629 7 90 0.0 1.6 0.00 0.00 0.00 38 1023.7
20260509083631 7 90 0.0 0.0 0.00 0.00 0.00 37 1023.7
20260509081632 8 90 1.6 4.8 0.00 0.00 0.00 38 1023.6
20260509075731 9 90 0.0 0.0 0.00 0.00 0.00 35 1023.8
20260509074747 9 90 0.0 0.0 0.00 0.00 0.00 36 1023.8
20260509073830 9 90 0.0 0.0 0.00 0.00 0.00 36 1023.8
20260509072830 8 90 1.6 1.6 0.00 0.00 0.00 36 1024.0
20260509071831 8 90 0.0 0.0 0.00 0.00 0.00 36 1024.2
20260509070832 8 90 0.0 0.0 0.00 0.00 0.00 38 1024.2
20260509065832 7 90 0.0 0.0 0.00 0.00 0.00 39 1024.0
20260509064830 7 90 0.0 0.0 0.00 0.00 0.00 38 1024.2
20260509063831 7 90 0.0 0.0 0.00 0.00 0.00 38 1024.2
20260509062831 7 90 0.0 0.0 0.00 0.00 0.00 38 1024.2
20260509062729 7 90 0.0 0.0 0.00 0.00 0.00 38 1024.2
20260509061733 7 90 0.0 0.0 0.00 0.00 0.00 38 1024.3
20260509060829 7 90 0.0 0.0 0.00 0.00 0.00 37 1024.2
20260509055840 7 90 0.0 0.0 0.00 0.00 0.00 36 1024.2
20260509054841 8 90 0.0 0.0 0.00 0.00 0.00 35 1024.3
20260509053841 8 90 0.0 0.0 0.00 0.00 0.00 34 1024.4
20260509052840 8 90 0.0 0.0 0.00 0.00 0.00 35 1024.4
20260509051839 8 90 0.0 0.0 0.00 0.00 0.00 34 1024.5
20260509050856 9 90 0.0 0.0 0.00 0.00 0.00 33 1024.6
20260509045841 9 90 0.0 0.0 0.00 0.00 0.00 33 1024.5
20260509044938 10 90 0.0 1.6 0.00 0.00 0.00 32 1024.6
20260509043943 10 90 0.0 0.0 0.00 0.00 0.00 31 1024.7
20260509042939 10 90 0.0 0.0 0.00 0.00 0.00 31 1024.5
20260509041941 11 90 1.6 3.2 0.00 0.00 0.00 31 1024.5
20260509040940 11 90 3.2 3.2 0.00 0.00 0.00 29 1024.7
20260509035942 11 90 1.6 3.2 0.00 0.00 0.00 29 1024.7
20260509034955 11 90 1.6 1.6 0.00 0.00 0.00 29 1024.5
20260509034042 11 90 0.0 1.6 0.00 0.00 0.00 30 1024.5
20260509033039 11 90 0.0 0.0 0.00 0.00 0.00 29 1024.5
20260509032040 12 90 0.0 3.2 0.00 0.00 0.00 28 1024.5
20260509030139 14 90 0.0 0.0 0.00 0.00 0.00 24 1024.3
20260509025142 15 90 0.0 1.6 0.00 0.00 0.00 25 1024.1
20260509024141 15 90 1.6 4.8 0.00 0.00 0.00 25 1024.0
20260509022238 16 90 0.0 1.6 0.00 0.00 0.00 23 1023.8
20260509021338 16 90 0.0 0.0 0.00 0.00 0.00 23 1023.7
20260509020339 17 90 0.0 1.6 0.00 0.00 0.00 22 1023.7
20260509015339 17 90 1.6 3.2 0.00 0.00 0.00 21 1023.4
20260509014438 17 90 1.6 8.0 0.00 0.00 0.00 21 1023.6
20260509013456 18 90 0.0 3.2 0.00 0.00 0.00 20 1023.6
20260509012539 18 90 0.0 1.6 0.00 0.00 0.00 20 1023.5
20260509011540 19 67 3.2 4.8 0.00 0.00 0.00 19 1023.3
20260509005640 20 67 3.2 6.4 0.00 0.00 0.00 18 1023.1
20260509005542 20 67 0.0 3.2 0.00 0.00 0.00 19 1023.1
20260509004541 20 67 3.2 8.0 0.00 0.00 0.00 17 1023.2
20260509003541 20 67 0.0 3.2 0.00 0.00 0.00 17 1023.4
20260509002638 20 67 1.6 3.2 0.00 0.00 0.00 17 1023.2
20260509001641 21 67 3.2 6.4 0.00 0.00 0.00 16 1023.3
20260508235641 21 90 3.2 6.4 0.00 0.00 0.00 17 1023.3
20260508233639 21 90 3.2 6.4 0.00 0.00 0.00 16 1023.1
20260508232640 22 112 1.6 4.8 0.00 0.00 0.00 17 1023.1
20260508231638 22 90 0.0 3.2 0.00 0.00 0.00 17 1023.0
20260508225638 21 90 1.6 4.8 0.00 0.00 0.00 17 1022.9
20260508224738 22 134 3.2 9.7 0.00 0.00 0.00 17 1023.1
20260508223740 22 90 3.2 6.4 0.00 0.00 0.00 18 1023.1
20260508222740 21 90 1.6 8.0 0.00 0.00 0.00 17 1023.1
20260508221739 22 90 0.0 3.2 0.00 0.00 0.00 18 1023.1
20260508220740 22 90 1.6 6.4 0.00 0.00 0.00 19 1023.4
20260508213838 21 90 1.6 4.8 0.00 0.00 0.00 20 1023.6
20260508212843 21 206 3.2 9.7 0.00 0.00 0.00 19 1023.6
20260508211841 20 90 3.2 6.4 0.00 0.00 0.00 19 1023.8
20260508205840 21 157 0.0 3.2 0.00 0.00 0.00 19 1023.9
20260508204939 21 98 3.2 8.0 0.00 0.00 0.00 18 1023.9
20260508203940 21 90 3.2 6.4 0.00 0.00 0.00 19 1024.0